Zurück zum Katalog

SL-12 R/B

AUX MOTOR

AktivHEO
NORAD 20631·ROCKET BODY·🇷🇺 Russia

Gestartet May 19, 1990 von Baikonur Cosmodrome

Loading…

Nächste Überflüge (nächste 24 Stunden)

TLE

AktuellSource: Space-Track

Epoche: Sep 13, 2026, 16:06 UTC

1 20631U 90045G   26256.67111837  .00000071  00000-0  46062-3 0  9994
2 20631  64.9387  12.1413 5507805 131.4221 291.1585  4.52138834581044

Verfolge SL-12 R/B in Echtzeit mit AllMySat

Download on the App Store